[[{"header":{"parameterUnit":"m.s-1","parameterCategory":1,"la1":30.2991,"la2":30.254,"lo1":-89.0895,"lo2":-89.0444,"dy":0.0017,"dx":0.0017,"nx":28,"ny":28,"refTime":"2025-01-25T09:00:00:Z","depth":0,"parameterNumber":2,"parameterNumberName":"U-component_of_WINDS"},"data":[0,0,0,0,0,0,0,0,0,0,0,0,0,0,0,0,0,0,0,0,0,0,0,0,0,0,0,0,0,0,0,0,0,0,0,0,0,0,0,0,0,0,0,0,0,0,0,0,0,0,0,0,0,0,0,0,0,0,-2.6138,-2.6139,0,-2.6234,-2.6235,-2.6236,-2.6234,-2.6233,-2.6231,-2.623,-2.6329,-2.6333,-2.6337,0,0,0,0,0,0,0,0,0,0,0,0,0,-2.5955,-2.5958,-2.6138,-2.6139,-2.6141,-2.6234,-2.6235,-2.6236,-2.6234,-2.6233,-2.6231,-2.623,-2.6328,-2.6332,-2.6337,0,0,0,0,0,0,0,0,0,0,0,0,0,-2.6041,-2.596,-2.6138,-2.6151,-2.6153,-2.6233,-2.6235,-2.6237,-2.6235,-2.6233,-2.6231,-2.6229,-2.6326,-2.6332,-2.6338,-2.6412,0,0,-2.6355,-2.6358,0,0,0,0,0,0,0,0,-2.6036,-2.6048,-2.6148,-2.615,-2.6153,-2.622,-2.6207,-2.6296,-2.6235,-2.6204,-2.623,-2.6228,-2.6294,-2.6303,-2.6325,-2.6417,-2.6421,-2.6356,-2.6359,-2.6362,-2.6363,0,0,0,0,0,0,0,-2.603,-2.6044,-2.6176,-2.6149,-2.6152,-2.6152,-2.6162,-2.6224,-2.6259,-2.6206,-2.6206,-2.6218,-2.6295,-2.6319,-2.6327,-2.6422,-2.6355,-2.6361,-2.6364,-2.6366,-2.658,-2.6582,0,0,0,0,0,0,-2.6021,-2.6039,-2.6173,-2.6179,-2.6088,-2.6157,-2.6168,-2.62,-2.6258,-2.6265,-2.6219,-2.6217,-2.631,-2.632,-2.6331,-2.6421,-2.6362,-2.6367,-2.637,-2.6578,-2.658,-2.6583,0,0,0,0,0,0,-2.6018,-2.6033,-2.6169,-2.6109,-2.6126,-2.6162,-2.6198,-2.6203,-2.6227,-2.6268,-2.6274,-2.6237,-2.6309,-2.6323,-2.6392,-2.6424,-2.637,-2.6375,-2.6575,-2.6578,-2.6581,-2.6602,0,0,0,0,0,0,-2.6012,-2.6032,-2.606,-2.611,-2.6129,-2.6228,-2.62,-2.6207,-2.6237,-2.6235,-2.6286,-2.6293,-2.6309,-2.6383,-2.6397,-2.6431,-2.6379,-2.6572,-2.6577,-2.658,-2.6599,-2.6606,-2.6612,0,0,0,0,0,-2.6006,-2.6063,-2.6062,-2.6078,-2.6165,-2.623,-2.6241,-2.6258,-2.624,-2.6268,-2.6295,-2.6291,-2.6419,-2.639,-2.6406,-2.6442,-2.657,-2.6575,-2.658,-2.6596,-2.6604,-2.6612,0,0,0,0,0,0,-2.6016,-2.6069,-2.6069,-2.6143,-2.6182,-2.623,-2.6266,-2.6267,-2.6312,-2.6309,-2.6328,-2.634,-2.6409,-2.6433,-2.64,-2.6517,-2.6492,-2.6501,-2.6499,-2.6507,-2.6514,-2.6506,-2.6384,0,0,0,0,0,-2.6027,-2.6075,-2.6119,-2.618,-2.62,-2.623,-2.6259,-2.6268,-2.631,-2.6326,-2.6357,-2.6398,-2.6447,-2.6479,-2.6526,-2.6603,-2.6614,-2.6636,-2.6642,-2.6648,-2.6654,-2.6696,-2.6706,-2.6599,-2.6599,-2.6599,0,0,-2.605,-2.6085,-2.6114,-2.6183,-2.6215,-2.6264,-2.6244,-2.6297,-2.6333,-2.6334,-2.6401,-2.6426,-2.6472,-2.6545,-2.6579,-2.6567,-2.6687,-2.6654,-2.6658,-2.6662,-2.6702,-2.6712,-2.6721,-2.6602,-2.6602,-2.6601,0,0,-2.6117,-2.6149,-2.6203,-2.6235,-2.6282,-2.6302,-2.6315,-2.6363,-2.6379,-2.6447,-2.6448,-2.6493,-2.6577,-2.661,-2.6638,-2.6718,-2.6716,-2.6733,-2.6767,-2.6808,-2.6816,-2.6824,-2.6851,-2.6861,-2.674,-2.674,-2.674,0,-2.614,-2.6213,-2.6231,-2.6284,-2.6314,-2.6318,-2.6373,-2.6403,-2.6464,-2.6485,-2.6471,-2.6577,-2.6609,-2.6689,-2.6709,-2.6732,-2.6747,-2.6726,-2.6813,-2.6821,-2.6828,-2.6855,-2.6865,-2.6742,-2.6742,-2.6741,-2.6741,0,-2.6238,-2.6289,-2.6328,-2.6386,-2.6421,-2.6475,-2.6501,-2.6534,-2.6542,-2.6563,-2.6631,-2.667,-2.6725,-2.6745,-2.6753,-2.6827,-2.6818,-2.6809,-2.6784,-2.684,-2.6865,-2.6875,-2.6744,-2.6743,-2.6743,-2.6743,0,0,-2.6312,-2.638,-2.6394,-2.642,-2.6473,-2.6514,-2.6568,-2.6622,-2.665,-2.6692,-2.6738,-2.681,-2.6802,-2.6833,-2.6845,-2.6881,-2.6941,-2.6867,-2.6869,-2.6878,-2.7024,-2.7029,-2.7041,-2.6941,-2.6943,-2.6945,-2.702,0,-2.6383,-2.6479,-2.6497,-2.658,-2.6628,-2.6633,-2.668,-2.6718,-2.674,-2.6784,-2.6808,-2.6858,-2.6844,-2.6863,-2.6899,-2.6926,-2.697,-2.6921,-2.6983,-2.6985,-2.6969,-2.7054,-2.706,-2.7129,-2.703,-2.7032,-2.7033,0,-2.6479,-2.6523,-2.6611,-2.6658,-2.6678,-2.6721,-2.6771,-2.6813,-2.6857,-2.687,-2.6906,-2.6914,-2.6971,-2.6945,-2.7023,-2.699,-2.7017,-2.7034,-2.7037,-2.7042,-2.7011,-2.706,-2.7151,-2.7161,-2.7049,-2.7048,-2.7046,0,-2.6522,-2.6604,-2.6667,-2.669,-2.6747,-2.6776,-2.6801,-2.6843,-2.6874,-2.6919,-2.6939,-2.6991,-2.7018,-2.7058,-2.708,-2.7059,-2.7157,-2.7132,-2.7169,-2.7168,-2.7188,-2.7186,-2.7283,-2.7208,-2.7208,-2.7208,-2.7207,0,-2.6598,-2.6651,-2.6687,-2.6726,-2.6786,-2.6807,-2.6866,-2.6891,-2.6928,-2.6972,-2.698,-2.7021,-2.7048,-2.7093,-2.7111,-2.7173,-2.7186,-2.7198,-2.7202,-2.7196,-2.7194,-2.7212,-2.7208,-2.721,-2.721,-2.7209,-2.7209,0,-2.6656,-2.6682,-2.6751,-2.6799,-2.6813,-2.6855,-2.6896,-2.6934,-2.6957,-2.7012,-2.7026,-2.7062,-2.7115,-2.7141,-2.7208,-2.722,-2.729,-2.7291,-2.7274,-2.7275,-2.731,-2.7306,-2.7421,-2.7436,-2.7353,-2.7354,-2.7354,0,-2.6702,-2.6743,-2.6796,-2.6825,-2.6851,-2.6899,-2.6931,-2.6954,-2.6987,-2.704,-2.7071,-2.7125,-2.7169,-2.7255,-2.7287,-2.7338,-2.7339,-2.7376,-2.7347,-2.734,-2.7338,-2.7335,-2.7339,-2.7381,-2.7382,-2.7382,-2.7383,0,-2.678,-2.6791,-2.6836,-2.6887,-2.6924,-2.6965,-2.7005,-2.7029,-2.7059,-2.7095,-2.715,-2.7184,-2.7252,-2.7306,-2.7359,-2.7386,-2.7389,-2.7392,-2.7403,-2.7397,-2.7385,-2.739,-2.7287,-2.7389,-2.7388,-2.7388,-2.7387,-2.7387,-2.6832,-2.6868,-2.6911,-2.6962,-2.6994,-2.7032,-2.707,-2.7097,-2.7143,-2.7199,-2.7211,-2.7268,-2.7312,-2.7384,-2.7413,-2.7458,-2.745,-2.7466,-2.747,-2.7473,-2.7474,-2.7379,-2.7469,-2.7468,-2.7468,-2.7468,-2.7468,0,-2.6909,-2.6937,-2.6984,-2.7039,-2.7079,-2.7079,-2.7124,-2.7157,-2.7208,-2.7248,-2.7291,-2.7354,-2.7406,-2.7443,-2.7495,-2.7525,-2.7528,-2.7538,-2.7535,-2.7541,-2.7479,-2.7464,-2.7535,-2.7535,-2.7535,-2.7535,-2.7535,-2.7535,-2.6954,-2.7015,-2.7032,-2.711,-2.7138,-2.7194,-2.7219,-2.7254,-2.7286,-2.7356,-2.7399,-2.7422,-2.7461,-2.7517,-2.7565,-2.7574,-2.7593,-2.7602,-2.7612,-2.7553,-2.7545,-2.7539,-2.7524,-2.7607,-2.7607,-2.7669,-2.767,-2.767]},{"header":{"parameterUnit":"m.s-1","parameterCategory":1,"la1":30.2991,"la2":30.254,"lo1":-89.0895,"lo2":-89.0444,"dy":0.0017,"dx":0.0017,"nx":28,"ny":28,"refTime":"2025-01-25T09:00:00:Z","depth":0,"parameterNumber":3,"parameterNumberName":"V-component_of_WINDS"},"data":[0,0,0,0,0,0,0,0,0,0,0,0,0,0,0,0,0,0,0,0,0,0,0,0,0,0,0,0,0,0,0,0,0,0,0,0,0,0,0,0,0,0,0,0,0,0,0,0,0,0,0,0,0,0,0,0,0,0,2.2946,2.2946,0,2.3019,2.302,2.3021,2.3024,2.3024,2.3023,2.3022,2.3097,2.3099,2.3102,0,0,0,0,0,0,0,0,0,0,0,0,0,2.2808,2.2811,2.2946,2.2946,2.2947,2.3019,2.302,2.3021,2.3025,2.3024,2.3022,2.3022,2.3096,2.3099,2.3102,0,0,0,0,0,0,0,0,0,0,0,0,0,2.2873,2.2811,2.2945,2.2958,2.296,2.3019,2.302,2.3022,2.3025,2.3024,2.3022,2.3021,2.3095,2.3099,2.3103,2.3155,0,0,2.3116,2.3117,0,0,0,0,0,0,0,0,2.287,2.2878,2.2955,2.2957,2.2959,2.3011,2.2999,2.3066,2.3025,2.3,2.3022,2.302,2.3069,2.3075,2.3092,2.3158,2.3161,2.3116,2.3119,2.312,2.3122,0,0,0,0,0,0,0,2.2865,2.2875,2.2975,2.2956,2.2959,2.296,2.2968,2.3012,2.3041,2.3002,2.3003,2.3011,2.307,2.3088,2.3094,2.3162,2.3116,2.312,2.3122,2.3124,2.3278,2.3279,0,0,0,0,0,0,2.2858,2.2871,2.2972,2.2977,2.291,2.2963,2.2972,2.2996,2.3041,2.3046,2.3012,2.3011,2.3082,2.3089,2.3097,2.3162,2.312,2.3124,2.3127,2.3276,2.3278,2.328,0,0,0,0,0,0,2.2855,2.2867,2.2969,2.2924,2.2938,2.2967,2.2994,2.2998,2.3016,2.3048,2.3053,2.3025,2.3081,2.3091,2.3141,2.3165,2.3126,2.313,2.3274,2.3277,2.3279,2.3293,0,0,0,0,0,0,2.2851,2.2866,2.2886,2.2925,2.294,2.3012,2.2995,2.3,2.3023,2.3023,2.3062,2.3067,2.3081,2.3135,2.3145,2.317,2.3133,2.3272,2.3275,2.3278,2.3291,2.3296,2.33,0,0,0,0,0,2.2846,2.2886,2.2887,2.2899,2.2965,2.3014,2.3022,2.3037,2.3025,2.3046,2.3067,2.3066,2.316,2.314,2.3152,2.3178,2.3271,2.3274,2.3278,2.3289,2.3295,2.33,0,0,0,0,0,0,2.2848,2.2891,2.2893,2.2946,2.2976,2.3014,2.304,2.3043,2.3077,2.3075,2.3092,2.31,2.3151,2.3169,2.3146,2.3232,2.3214,2.322,2.3218,2.3224,2.3229,2.3224,2.3137,0,0,0,0,0,2.2855,2.2891,2.2926,2.297,2.2986,2.301,2.3032,2.3041,2.3073,2.3086,2.311,2.3141,2.3178,2.3202,2.3237,2.3293,2.3303,2.3317,2.3322,2.3325,2.3331,2.3364,2.3372,2.3291,2.3291,2.3291,0,0,2.2869,2.2897,2.2919,2.2971,2.2996,2.3033,2.3021,2.306,2.3089,2.3091,2.3141,2.3161,2.3196,2.325,2.3275,2.3267,2.3355,2.333,2.3333,2.3336,2.3368,2.3376,2.3383,2.3294,2.3293,2.3293,0,0,2.2915,2.2938,2.2979,2.3004,2.3042,2.3059,2.3068,2.3106,2.312,2.317,2.3174,2.3207,2.327,2.3296,2.3317,2.3375,2.3376,2.3386,2.341,2.3442,2.3449,2.3455,2.3477,2.3485,2.3391,2.3391,2.3391,0,2.2927,2.2984,2.2999,2.304,2.3064,2.3069,2.3111,2.3134,2.3181,2.3198,2.3188,2.3269,2.3293,2.3354,2.3368,2.3385,2.3397,2.3382,2.3447,2.3453,2.3458,2.348,2.3488,2.3392,2.3392,2.3392,2.3391,0,2.2999,2.3038,2.3066,2.3113,2.314,2.3181,2.3203,2.3228,2.3235,2.3253,2.3305,2.3335,2.3378,2.3392,2.3399,2.3455,2.345,2.3443,2.3426,2.3467,2.3488,2.3496,2.3393,2.3393,2.3393,2.3392,0,0,2.3047,2.3103,2.3114,2.3136,2.3179,2.321,2.3251,2.3294,2.3316,2.3349,2.3385,2.3439,2.3434,2.3458,2.3468,2.3496,2.3542,2.3486,2.3487,2.3497,2.3609,2.3615,2.3624,2.3543,2.3544,2.3546,2.3606,0,2.3099,2.3174,2.3189,2.3254,2.3292,2.3298,2.3334,2.3365,2.3383,2.3418,2.3437,2.3476,2.3465,2.3481,2.3509,2.3531,2.3565,2.3526,2.3578,2.358,2.3571,2.3634,2.364,2.3696,2.3614,2.3616,2.3617,0,2.3169,2.3205,2.3274,2.3314,2.333,2.3362,2.3404,2.3437,2.3472,2.3483,2.3512,2.3519,2.3563,2.3543,2.3606,2.3579,2.3601,2.3615,2.3618,2.3624,2.3602,2.3645,2.3714,2.3723,2.3629,2.3628,2.3627,0,2.32,2.3265,2.3316,2.3334,2.3381,2.3405,2.3425,2.3459,2.3485,2.3521,2.3538,2.3578,2.3601,2.3632,2.3651,2.3634,2.3712,2.3693,2.3724,2.3724,2.3741,2.374,2.3817,2.3753,2.3753,2.3752,2.3752,0,2.3257,2.3299,2.3331,2.3362,2.341,2.3428,2.3475,2.3495,2.3526,2.3562,2.3569,2.3602,2.3624,2.3661,2.3675,2.3726,2.3735,2.3747,2.3751,2.3747,2.3746,2.3763,2.376,2.3755,2.3754,2.3754,2.3753,0,2.33,2.3323,2.3378,2.3419,2.343,2.3464,2.3499,2.353,2.3549,2.3594,2.3606,2.3635,2.3679,2.37,2.3754,2.3764,2.3822,2.3822,2.3811,2.3813,2.3843,2.3841,2.3935,2.3949,2.3873,2.3874,2.3875,0,2.3336,2.3369,2.3414,2.3439,2.3461,2.35,2.3527,2.3546,2.3573,2.3617,2.3643,2.3687,2.3724,2.3794,2.382,2.3862,2.3864,2.3895,2.3871,2.3867,2.3868,2.3866,2.387,2.3899,2.39,2.3901,2.3901,0,2.3398,2.3408,2.3446,2.3488,2.352,2.3554,2.3588,2.3608,2.3632,2.3663,2.3708,2.3737,2.3793,2.3838,2.3882,2.3904,2.3907,2.3908,2.3918,2.3916,2.3909,2.3915,2.3824,2.3906,2.3906,2.3905,2.3905,2.3905,2.344,2.3471,2.3508,2.355,2.3578,2.361,2.3642,2.3665,2.3703,2.3751,2.376,2.3809,2.3845,2.3905,2.3928,2.3967,2.396,2.3974,2.3978,2.3981,2.3984,2.3901,2.3975,2.3975,2.3975,2.3974,2.3974,0,2.3504,2.3529,2.3568,2.3615,2.3649,2.365,2.3688,2.3716,2.3759,2.3793,2.383,2.3883,2.3927,2.3957,2.4001,2.4027,2.403,2.4038,2.4037,2.4043,2.3986,2.3974,2.4035,2.4035,2.4035,2.4035,2.4035,2.4035,2.3542,2.3594,2.3609,2.3676,2.37,2.3748,2.377,2.38,2.3827,2.3887,2.3924,2.3943,2.3976,2.4024,2.4064,2.4072,2.4089,2.4098,2.4106,2.4053,2.4046,2.404,2.4029,2.4101,2.4101,2.4159,2.416,2.416]}]]